Weather History for San Nicolas Island, CA

Change the Weather History Date:

Thursday, December 6, 2012

  Actual Average Record
Temperature  
Mean Temperature 67 °F -  
Max Temperature 75 °F 59 °F 75 °F (2012)
Min Temperature 59 °F 50 °F 41 °F (2011)
Cooling Degree Days 2    
Growing Degree Days 17 (Base 50)    
Moisture  
Dew Point 57 °F    
Average Humidity 85    
Maximum Humidity 100    
Minimum Humidity 63    
Precipitation  
Precipitation 0.00 in - - ()
Sea Level Pressure  
Sea Level Pressure 29.94 in    
Wind  
Wind Speed 21 mph (WNW)    
Max Wind Speed 29 mph    
Max Gust Speed 37 mph    
Visibility 3 miles    
Events Rain    
Averages and records for this station are not official NWS values.
T = Trace of Precipitation, MM = Missing Value Source: NWS Daily Summary

Daily Weather History Graph

Daily Weather History Graph

Search for Another Location

Airport:

Trip Planner

Search our weather history database for the weather conditions in past years. The results will help you decide how hot, cold, wet, or windy it might be!

Date:

Astronomy

Dec. 06, 2012 Rise Set
Actual Time 6:47 AM PST 4:50 PM PST
Civil Twilight 6:20 AM PST 5:17 PM PST
Nautical Twilight 5:49 AM PST 5:48 PM PST
Astronomical Twilight 5:19 AM PST 6:18 PM PST
Moon No Moon Rise 12:00 PM PST (12/6)
Length of Visible Light 10h 56m
Length of Day
10h 02m
Waning Gibbous, 48% of the Moon is Illuminated
Dec 6
Waning Gibbous
Dec 13
New
Dec 19
First Quarter
Dec 28
Full
Jan 4
Last Quarter

Hourly Weather History & Observations

Time (PST) Temp. Dew Point Humidity Pressure Visibility Wind Dir Wind Speed Gust Speed Precip Events Conditions
12:53 AM 72.0 °F - N/A% 29.99 in 0.2 mi West 23.0 mph 31.1 mph 0.00 in Rain Light Rain
1:53 AM 75.0 °F - N/A% 29.99 in 0.2 mi WNW 16.1 mph 24.2 mph 0.00 in   Mist
2:53 AM 73.9 °F - N/A% 29.98 in 0.2 mi West 18.4 mph - N/A   Mist
3:53 AM 70.0 °F - N/A% 29.96 in 0.2 mi WNW 17.3 mph 25.3 mph N/A   Mist
4:53 AM 68.0 °F - N/A% 29.93 in 0.2 mi WNW 26.5 mph 32.2 mph N/A   Mist
5:53 AM 59.9 °F 59.5 °F 99% 29.94 in 0.2 mi WNW 25.3 mph 31.1 mph N/A   Mist
6:53 AM 59.7 °F 57.4 °F 92% 29.95 in 0.1 mi WNW 23.0 mph 31.1 mph N/A   Mist
7:53 AM 59.7 °F 56.3 °F 88% 29.96 in 0.2 mi WNW 23.0 mph 31.1 mph N/A   Mist
8:12 AM 59.0 °F 57.2 °F 94% 29.98 in 2.0 mi NW 23.0 mph - N/A   Overcast
8:21 AM 59.0 °F 57.2 °F 94% 29.97 in 1.0 mi WNW 21.9 mph 28.8 mph N/A   Overcast
8:32 AM 59.0 °F 57.2 °F 94% 29.98 in 2.5 mi NW 18.4 mph - N/A   Overcast
8:39 AM 59.0 °F 57.2 °F 94% 29.98 in 1.5 mi NW 19.6 mph 26.5 mph N/A   Overcast
8:53 AM 59.7 °F 56.3 °F 88% 29.97 in 1.5 mi NW 20.7 mph 27.6 mph N/A   Overcast
9:50 AM 59.0 °F 59.0 °F 100% 29.99 in 2.0 mi NW 19.6 mph - N/A   Mostly Cloudy
9:53 AM 59.4 °F 58.5 °F 97% 29.98 in 2.0 mi NW 18.4 mph - N/A   Mostly Cloudy
10:31 AM 62.6 °F 60.8 °F 94% 29.99 in 3.0 mi NW 19.6 mph 27.6 mph N/A   Mostly Cloudy
10:51 AM 62.6 °F 60.8 °F 94% 29.99 in 3.0 mi NW 23.0 mph - N/A   Mostly Cloudy
10:53 AM 61.7 °F 60.4 °F 96% 29.97 in 3.0 mi NW 21.9 mph - N/A   Mostly Cloudy
11:53 AM 61.5 °F 59.0 °F 91% 29.94 in 4.0 mi NW 16.1 mph - N/A   Scattered Clouds
12:53 PM 61.5 °F 59.0 °F 91% 29.92 in 5.0 mi WNW 16.1 mph - N/A   Scattered Clouds
1:53 PM 62.1 °F 58.6 °F 89% 29.89 in 4.0 mi WNW 19.6 mph - N/A   Scattered Clouds
2:53 PM 62.1 °F 58.6 °F 89% 29.89 in 4.0 mi NW 17.3 mph 24.2 mph N/A   Scattered Clouds
3:53 PM 61.2 °F 57.4 °F 87% 29.88 in 4.0 mi NW 21.9 mph 28.8 mph N/A   Mostly Cloudy
4:53 PM 61.9 °F 57.2 °F 85% 29.88 in 4.0 mi WNW 23.0 mph 32.2 mph N/A   Mostly Cloudy
5:12 PM 66.2 °F 55.4 °F 68% 29.90 in 6.0 mi WNW 24.2 mph 32.2 mph N/A   Overcast
5:53 PM 64.9 °F 55.0 °F 70% 29.88 in 6.0 mi WNW 26.5 mph 33.4 mph N/A   Overcast
6:53 PM 64.9 °F 54.0 °F 68% 29.90 in 6.0 mi WNW 28.8 mph 36.8 mph N/A   Scattered Clouds
7:53 PM 66.0 °F 54.0 °F 65% 29.91 in 7.0 mi WNW 24.2 mph 32.2 mph N/A   Partly Cloudy
8:53 PM 66.0 °F 54.0 °F 65% 29.93 in 7.0 mi WNW 20.7 mph - N/A   Scattered Clouds
9:53 PM 66.0 °F 54.0 °F 65% 29.93 in 6.0 mi WNW 20.7 mph - N/A   Clear
10:53 PM 66.0 °F 54.0 °F 65% 29.92 in 6.0 mi WNW 17.3 mph - N/A   Clear
11:53 PM 66.9 °F 54.0 °F 63% 29.92 in 7.0 mi WNW 15.0 mph - N/A   Clear